Location: Bartlow
(52.0833°N, 0.3167°E)
Time: 04:04:44
(UTC+00:00)

Cosmos 2082 Rocket - Pass Details

Date: 26 September 2023
Orbit: 834 x 852 km, 71.0° (Epoch: 29 November)

Event Time Altitude Azimuth Distance (km) Brightness Sun altitude
Exits shadow 01:01:31 18° 80° (E) 1,968 4.3 -36.9°
Drops below altitude 10° 01:04:02 10° 55° (NE) 2,490 5.2 -36.7°
Sets 01:07:05 0° 40° (NE) 3,430 6.3 -36.5°
